#timestamp,LO_Frequency,Hit 
1504332015.5,286046991.4,N
1504332035.3,286046995.5,N
1504332055.2,286046998.6,N
1504332075.9,286047001.0,N
1504332095.7,286046999.3,N
1504332115.6,286046994.9,N
1504332135.4,286046997.1,N
1504332155.2,286046996.7,N
1504332175.0,286046997.4,N
1504332176.0,286046997.4,N
1504332195.8,286046993.4,N
1504332215.6,286046994.2,N
1504332235.4,286046996.3,N
1504332255.3,286047001.8,N
1504332275.1,286047001.3,N
1504332295.8,286046998.8,N
1504332315.7,286047002.0,N
1504332335.5,286047005.2,N
1504332355.3,286047009.0,N
1504332375.2,286047007.8,N
1504332395.9,286047006.0,N
1504332415.7,286047005.1,N
1504332435.6,286047004.4,N
1504332455.4,286047007.1,N
1504332475.2,286047008.8,N
1504332495.1,286047008.7,N
1504332496.0,286047008.7,N
1504332515.8,286047008.6,N
1504332535.6,286047009.0,N
1504332555.4,286047004.8,N
1504332575.3,286047001.8,N
1504332595.1,286047005.2,N
1504332615.8,286047003.4,N
1504332635.7,286047006.9,N
1504332655.5,286047007.4,N
1504332675.3,286047010.5,N
1504332695.2,286047002.3,N
1504332715.9,286046999.0,N
1504332735.7,286046996.6,N
1504332755.6,286046996.3,N
1504332775.4,286046995.6,N
1504332795.2,286046996.9,N
1504332815.1,286046999.4,N
1504332816.0,286046999.4,N
1504332835.8,286046996.5,N
1504332855.6,286046996.6,N
1504332875.4,286046994.3,N
1504332895.3,286046992.9,N
1504332915.1,286046993.9,N
1504332935.8,286046999.2,N
1504332955.7,286047001.9,N
1504332975.5,286047004.0,N
1504332995.3,286047000.8,N
1504333015.2,286046997.2,N
1504333035.9,286046995.4,N
1504333055.7,286046994.7,N
1504333075.6,286046994.9,N
1504333095.4,286046999.5,N
1504333115.2,286047000.2,N
1504333135.1,286047004.3,N
1504333136.0,286047004.3,N
1504333155.8,286046998.1,N
1504333175.6,286046995.2,N
1504333195.5,286046996.5,N
1504333215.3,286046998.1,N
1504333235.1,286047000.9,N
1504333255.8,286047000.7,N
1504333275.7,286046998.7,N
1504333295.5,286047000.3,N
1504333315.3,286046996.7,N
1504333335.2,286046994.1,N
1504333355.9,286046995.5,N
1504333375.7,286046993.8,N
1504333395.6,286046995.8,N
1504333415.4,286046995.6,N
1504333435.2,286046997.7,N
1504333455.1,286046995.2,N
1504333456.0,286046995.2,N
1504333475.8,286046993.4,N
1504333495.6,286046994.1,N
1504333515.5,286046997.4,N
1504333535.3,286047002.7,N
1504333555.1,286047000.9,N
1504333575.9,286047001.5,N
1504333595.7,286047001.0,N
1504333615.5,286046995.7,N
1504333635.3,286046996.4,N
1504333655.2,286046994.2,N
1504333675.0,286046992.4,N
1504333675.9,286046992.4,N
1504333695.7,286046992.3,N
1504333715.6,286046997.0,N
1504333735.4,286046996.9,N
1504333755.2,286046998.0,N
1504333775.1,286046999.4,N
1504333776.0,286046999.4,N
1504333795.8,286046999.4,N
1504333815.6,286046993.8,N
1504333835.5,286046992.3,N
1504333855.3,286046991.1,P
1504333875.1,286046994.2,N
1504333895.9,286046992.6,P
1504333915.7,286046993.4,P
1504333935.5,286047003.1,P
1504333955.4,286047006.5,N
1504333975.2,286047010.6,N
1504333995.0,286047008.1,N
1504333995.9,286047008.1,N
1504334015.8,286047008.0,N
1504334035.6,286047008.8,N
1504334055.4,286047010.0,N
1504334075.3,286047006.1,N
1504334095.1,286047007.9,N
1504334096.0,286047007.9,N
1504334115.8,286047009.9,N
1504334135.7,286047006.5,N
1504334155.5,286047008.0,N
1504334175.3,286047012.1,N
1504334195.1,286047014.9,N
1504334215.9,286047014.8,N
1504334235.7,286047016.2,N
1504334255.5,286047009.9,N
1504334275.4,286047007.8,N
1504334295.2,286047010.9,N
1504334315.0,286047016.5,P
1504334316.0,286047016.5,P
1504334335.8,286047004.2,N
1504334355.6,286047000.1,N
1504334375.4,286047004.3,N
1504334395.3,286047001.1,N
1504334415.1,286046996.7,N
1504334435.8,286046996.1,N
1504334455.7,286046996.1,N
1504334475.5,286046996.8,N
1504334495.3,286046994.7,N
1504334515.2,286046994.5,N
1504334535.9,286046999.1,N
1504334555.7,286047000.6,N
1504334575.6,286047004.0,N
1504334595.4,286046998.2,N
1504334615.2,286046998.1,N
1504334635.0,286047000.8,N
1504334635.9,286047000.8,N
1504334655.8,286047000.8,N
1504334675.6,286047003.6,N
1504334695.4,286047005.5,N
1504334715.3,286047006.6,N
1504334735.1,286047003.2,N
1504334755.8,286047005.0,N
1504334775.7,286047003.4,N
1504334795.5,286047008.8,N
1504334815.3,286047005.3,N
1504334835.2,286047002.3,N
1504334855.9,286047001.6,N
1504334875.7,286047003.0,N
1504334895.6,286047004.7,N
1504334915.4,286047003.6,N
1504334935.2,286047003.8,N
1504334955.0,286046999.9,N
1504334955.9,286046999.9,N
1504334975.8,286047001.3,N
1504334995.6,286047002.2,N
1504335015.4,286047000.4,N
1504335035.3,286046995.6,N
1504335055.1,286046995.6,N
1504335075.8,286046999.4,N
1504335095.7,286047004.0,N
1504335115.5,286047001.5,N
1504335135.3,286047001.6,N
1504335155.2,286047003.6,N
1504335175.9,286047002.8,N
1504335195.7,286047000.7,N
1504335215.6,286046995.1,N
1504335235.4,286046995.2,N
1504335255.2,286046992.5,N
1504335275.0,286046991.6,N
1504335276.0,286046991.6,N
1504335295.8,286046993.3,N
1504335315.6,286046997.0,N
1504335335.4,286046999.5,N
1504335355.3,286046996.8,N
1504335375.1,286046997.7,N
1504335395.8,286046997.0,N
1504335415.7,286046999.8,N
1504335435.5,286047000.8,N
1504335455.3,286046998.2,N
1504335475.2,286047001.7,N
1504335495.9,286047003.0,N
1504335515.7,286046998.7,N
1504335535.6,286046998.2,N
1504335555.4,286047000.9,N
1504335575.2,286047002.7,N
1504335595.1,286046997.0,N
1504335596.0,286046997.0,N
